Hourly Data Report for October 24, 2014

All times are specified in Local Standard Time (LST). Add 1 hour to adjust for Daylight Saving Time where and when it is observed.

PENTICTON A
BRITISH COLUMBIA

49°27'45.000" N
119°36'08.000" W
344.40 m
1126146
71889
YYF

Download Data

Hourly Data (October 2014)
Hourly Data Report for October 24, 2014
Temp Definition
°C
Dew Point Temp Definition
°C
Rel Hum Definition
%
Wind Dir Definition
10's deg

Wind Spd Definition
km/h
Visibility Definition
km
Stn Press Definition
kPa
Hmdx Definition


Wind Chill Definition


Weather Definition


TIME
00:00 Legend Double Dagger 5.0 1.1 76 2 4 24.1 97.35     LegendNANA
01:00 Legend Double Dagger 6.2 1.7 73 36 2 24.1 97.42     Mainly Clear
02:00 Legend Double Dagger 7.3 2.4 71 14 8 24.1 97.50     LegendNANA
03:00 Legend Double Dagger 4.7 0.7 75 4 5 24.1 97.52     LegendNANA
04:00 Legend Double Dagger 3.2 0.3 81 5 4 24.1 97.62     Mostly Cloudy
05:00 Legend Double Dagger 2.4 -0.5 81 36 3 24.1 97.69     LegendNANA
06:00 Legend Double Dagger 1.7 -0.6 85 35 3 24.1 97.72     LegendNANA
07:00 Legend Double Dagger 1.7 0.1 89 36 1 24.1 97.78     Mostly Cloudy
08:00 Legend Double Dagger 4.1 1.1 81 1 7 24.1 97.86     LegendNANA
09:00 Legend Double Dagger 6.6 2.1 73 36 2 24.1 97.91     LegendNANA
10:00 Legend Double Dagger 7.8 1.4 64 36 2 24.1 97.89     Mostly Cloudy
11:00 Legend Double Dagger 8.9 2.0 62 19 8 24.1 97.85     LegendNANA
12:00 Legend Double Dagger 10.5 3.1 60 17 12 24.1 97.79     LegendNANA
13:00 Legend Double Dagger 11.4 3.2 57 18 9 24.1 97.74     Mostly Cloudy
14:00 Legend Double Dagger 12.3 3.6 55 16 9 24.1 97.69     LegendNANA
15:00 Legend Double Dagger 10.8 4.1 63 35 13 24.1 97.66     LegendNANA
16:00 Legend Double Dagger 9.9 3.7 65 34 10 24.1 97.64     Cloudy
17:00 Legend Double Dagger 8.3 3.4 71 35 6 24.1 97.60     LegendNANA
18:00 Legend Double Dagger 6.3 3.5 82 6 4 24.1 97.57     LegendNANA
19:00 Legend Double Dagger 5.8 3.2 83 3 4 24.1 97.59     Cloudy
20:00 Legend Double Dagger 5.8 3.2 83 34 7 24.1 97.56     LegendNANA
21:00 Legend Double Dagger 6.3 3.5 82 32 3 24.1 97.54     LegendNANA
22:00 Legend Double Dagger 6.7 3.7 81 34 7 24.1 97.52     Cloudy
23:00 Legend Double Dagger 7.4 3.3 75 36 3 24.1 97.46     Rain Showers

Notes on Data Quality.

Legend

  • E = Estimated
  • M = Missing
  • NA = Not Available
  • ‡ = Partner data that is not subject to review by the National Climate Archives
Date modified: